SCP
-0 -0 -0 -0 -0 -0 -0 0 0 -0 0 -0 -0 -0 -0 -0 0 -0 0 -0 -0 0 -0 -0 0 0 0 0 0 0 0 0
0 -0 0 0 0 0 -0 -0 -0 0 -0 -0 0 -0 -0 0 -0 -0 0 0 0 0 0 0 0 0 0 0 0 0 0 -0
0 0 0 0 0 0 0 0 -0 0 -0 -0 -0 -0 -0 0 0 0 0 0 0 0 0 0 0 0 0 0 0 0 -0 -0
-0 -0 0 -0 -0 0 0 0 0 0 0 0 -0 0 -0 -0 0 0 0 0 0 0 0 0 -0 -0 -0 0 0 0 -0 -0
0 0 -0 0 -0 0 0 0 0 0 0 0 -0 -0 -0 -0 -0 0 0 0 0 0 0 -0 -0 0 0 0 0 -0 -0 -0
-0 -0 -0 0 -0 -0 0 0 0 0 0 -0 -0 -0 -0 -0 -0 -0 -0 -0 0 0 0 0 -0 0 0 -0 -0 -0 -0 -0
-0 -0 0 -0 -0 0 0 0 -0 -0 -0 -0 -0 -0 -0 -0 -0 -0 -0 -0 -0 0 -0 -0 -0 -0 -0 -0 -0 -0 -0 -0
0 0 -0 -0 0 0 0 0 -0 -0 -0 0 0 -0 -0 -0 -0 -0 0 -0 -0 -0 -0 -0 -0 -0 -0 -0 -0 -0 -0 -0
-0 -0 -0 0 0 0 0 -0 -0 0 0 0 -0 -0 -0 -0 -0 0 -0 -0 0 -0 -0 -0 -0 -0 -0 -0 -0 -0 -0 -0
-0 -0 -0 0 0 0 0 -0 0 0 0 0 0 -0 -0 -0 -0 0 0 0 0 0 -0 -0 -0 -0 -0 0 0 0 0 0
-0 -0 -0 0 0 0 0 0 -0 0 0 -0 0 -0 -0 -0 -0 -0 -0 0 0 0 -0 0 0 0 0 0 0 0 0 0
-0 -0 -0 0 0 0 0 0 -0 -0 0 0 0 -0 -0 0 -0 -0 0 -0 -0 0 0 0 0 0 0 0 0 0 0 0
-0 -0 -0 -0 0 0 0 0 0 0 0 0 -0 -0 -0 -0 -0 -0 -0 -0 -0 0 0 0 0 0 0 0 0 0 0 0
-0 -0 -0 0 0 -0 0 -0 0 0 0 0 -0 -0 -0 -0 -0 -0 -0 -0 -0 0 0 -0 -0 0 0 0 0 0 0 0
-0 -0 -0 0 -0 -0 -0 -0 0 0 0 0 0 -0 -0 -0 -0 -0 -0 -0 -0 -0 -0 -0 0 0 0 0 0 0 0 0
0 -0 0 0 -0 0 0 0 -0 0 0 1 0 0 -0 -0 -0 -0 -0 -0 -0 0 0 0 0 0 0 0 0 0 0 0
0 0 0 0 0 -0 0 0 -0 0 0 0 0 0 -0 -0 -0 -0 0 0 0 0 0 0 0 0 0 0 0 0 0 0
0 -0 0 0 0 0 0 0 0 0 0 0 0 1 0 -0 0 0 0 1 1 0 0 0 0 0 0 0 0 0 0 0
0 0 0 0 0 0 -0 0 0 0 0 0 0 -0 0 0 0 0 0 0 0 0 0 0 0 0 0 0 0 0 0 0
0 0 0 0 0 0 0 0 0 0 0 0 -0 0 0 0 0 0 0 0 0 0 0 0 0 0 0 0 0 0 0 0
Wind_Speed_500mb
8 6 6 5 2 6 11 13 10 10 16 6 5 27 44 36 44 39 36 33 29 25 21 19 20 21 23 26 28 29 29 29
8 4 6 4 9 13 6 18 18 23 11 11 7 34 28 45 42 37 35 31 28 26 24 23 23 25 27 28 29 31 32 33
9 7 5 6 10 20 8 9 12 6 5 12 29 25 41 43 39 34 37 35 32 30 28 27 26 26 28 30 31 33 36 37
1 1 8 9 4 7 11 18 24 28 13 7 24 37 42 39 39 36 37 38 35 31 28 26 26 26 27 28 30 32 34 35
6 6 0 4 13 16 17 20 3 20 6 17 40 43 43 42 39 37 35 34 34 31 29 27 26 26 26 26 26 26 28 28
6 11 7 3 10 26 40 6 29 33 12 18 52 49 46 45 41 38 35 32 31 29 29 27 26 26 25 25 24 25 23 20
10 15 10 13 8 22 14 34 11 15 30 55 56 54 51 48 43 40 37 34 33 30 28 28 26 25 24 23 20 19 16 15
14 17 16 28 20 29 13 32 8 20 50 54 54 54 52 50 47 43 41 39 37 33 29 30 26 24 22 21 19 15 12 10
8 23 35 15 16 18 21 6 15 57 65 60 55 54 50 47 44 42 41 41 37 33 31 29 23 18 17 15 13 10 7 6
12 13 13 18 18 8 27 8 25 59 61 63 58 53 51 47 45 44 41 37 35 30 27 24 18 14 15 16 14 13 9 5
15 19 18 15 10 8 35 14 38 58 60 59 55 53 48 47 41 41 38 35 31 28 21 21 14 13 15 16 14 13 13 13
17 17 11 13 3 9 22 22 47 58 62 58 54 54 49 45 40 42 38 35 30 27 22 25 24 14 12 13 12 12 13 12
15 11 6 3 7 8 28 37 55 57 57 55 54 50 50 41 39 37 38 38 32 28 31 31 27 18 16 15 14 10 7 7
6 6 8 9 19 9 32 40 50 47 52 52 51 51 52 51 45 44 41 42 42 37 35 29 26 21 19 19 15 10 7 7
2 9 5 2 14 8 37 42 37 39 44 45 47 48 49 51 53 56 54 50 49 40 33 28 26 25 26 22 15 9 5 10
8 14 6 5 27 11 22 38 44 46 47 45 42 39 41 46 49 54 54 53 46 39 33 29 27 28 27 18 4 5 4 9
9 15 15 29 31 22 21 29 38 51 57 53 48 46 45 44 47 52 52 51 46 42 39 37 36 31 25 14 3 6 11 16
7 6 21 5 33 10 16 17 37 48 59 64 59 58 57 55 54 52 50 46 45 44 42 39 33 27 22 12 10 13 17 19
7 6 7 10 10 12 12 29 24 39 60 66 72 72 67 64 59 51 44 41 42 41 38 37 34 29 22 16 21 21 22 19
15 10 8 5 9 10 13 16 18 44 58 72 78 74 71 69 64 57 48 45 40 40 43 44 36 27 15 14 24 26 23 19
Wind_Direction_500mb
87 95 149 180 147 129 69 105 38 103 69 67 115 137 139 148 152 159 157 154 152 151 151 140 128 116 103 96 94 94 94 91
79 69 32 33 135 125 88 74 58 104 66 80 127 139 145 150 153 155 150 147 147 146 141 132 122 113 105 100 96 92 89 86
77 313 312 303 159 143 96 85 98 51 97 100 147 148 147 148 149 151 145 143 144 144 140 133 123 112 102 97 93 90 88 88
294 289 320 287 103 87 92 98 97 116 116 150 157 154 149 147 143 144 139 139 138 137 134 127 118 110 103 97 94 92 91 90
160 162 219 214 71 118 131 122 106 148 76 138 152 154 146 143 142 140 140 140 139 137 133 126 116 110 105 101 101 102 94 94
200 187 210 192 115 158 120 161 152 149 167 174 158 156 152 150 149 148 147 146 140 139 135 129 124 119 116 115 110 107 102 101
234 162 200 176 142 161 121 151 153 207 169 147 152 157 159 159 160 158 154 149 144 139 135 130 123 124 121 122 117 117 109 98
196 176 168 185 171 159 149 176 226 179 159 159 160 162 164 164 161 162 159 153 149 137 134 140 129 128 126 123 123 128 114 107
188 183 175 149 144 160 141 182 199 162 164 170 170 171 172 167 165 159 158 161 154 149 142 142 142 146 142 142 147 152 144 130
121 171 135 124 160 138 157 200 185 168 170 173 178 179 179 174 171 167 167 164 166 163 160 159 163 168 179 189 194 200 216 243
104 125 105 140 111 157 197 220 180 172 176 181 182 188 188 190 181 179 177 174 176 182 179 183 184 198 203 207 217 232 252 270
69 69 81 131 113 134 202 202 185 179 185 189 191 196 197 200 196 193 190 188 189 194 194 197 206 219 213 219 231 240 248 265
38 35 27 50 323 212 178 183 173 183 193 196 201 207 211 208 211 208 203 201 201 201 199 201 213 225 230 240 239 241 264 283
348 89 15 55 247 251 173 182 176 185 191 201 205 215 222 221 225 224 216 207 205 203 207 209 217 226 235 241 229 232 263 295
336 171 93 94 261 343 190 190 181 183 188 196 201 208 220 228 234 227 215 209 204 202 207 214 220 226 224 217 212 221 301 322
221 208 131 191 258 288 206 197 186 183 185 190 196 204 215 223 224 216 203 199 203 205 209 219 229 229 212 205 206 359 56 63
233 216 144 215 232 254 227 198 190 191 187 185 187 188 193 200 202 199 197 202 209 215 218 222 225 220 209 185 199 138 105 91
222 268 185 155 237 249 211 223 201 197 192 191 186 187 189 193 199 203 205 207 214 220 225 221 224 210 197 167 166 135 115 108
191 90 29 110 310 201 228 214 220 219 213 204 200 196 194 197 202 207 212 221 226 224 219 211 206 201 189 172 164 152 135 127
131 130 211 174 260 254 214 209 203 217 215 215 211 209 204 205 207 210 211 217 220 218 215 208 208 226 232 207 170 156 153 138
Wind_Speed_850mb
8 6 6 5 2 6 11 13 10 10 16 6 5 27 44 36 44 39 36 33 29 25 21 19 20 21 23 26 28 29 29 29
8 4 6 4 9 13 6 18 18 23 11 11 7 34 28 45 42 37 35 31 28 26 24 23 23 25 27 28 29 31 32 33
9 7 5 6 10 20 8 9 12 6 5 12 29 25 41 43 39 34 37 35 32 30 28 27 26 26 28 30 31 33 36 37
1 1 8 9 4 7 11 18 24 28 13 7 24 37 42 39 39 36 37 38 35 31 28 26 26 26 27 28 30 32 34 35
6 6 0 4 13 16 17 20 3 20 6 17 40 43 43 42 39 37 35 34 34 31 29 27 26 26 26 26 26 26 28 28
6 11 7 3 10 26 40 6 29 33 12 18 52 49 46 45 41 38 35 32 31 29 29 27 26 26 25 25 24 25 23 20
10 15 10 13 8 22 14 34 11 15 30 55 56 54 51 48 43 40 37 34 33 30 28 28 26 25 24 23 20 19 16 15
14 17 16 28 20 29 13 32 8 20 50 54 54 54 52 50 47 43 41 39 37 33 29 30 26 24 22 21 19 15 12 10
8 23 35 15 16 18 21 6 15 57 65 60 55 54 50 47 44 42 41 41 37 33 31 29 23 18 17 15 13 10 7 6
12 13 13 18 18 8 27 8 25 59 61 63 58 53 51 47 45 44 41 37 35 30 27 24 18 14 15 16 14 13 9 5
15 19 18 15 10 8 35 14 38 58 60 59 55 53 48 47 41 41 38 35 31 28 21 21 14 13 15 16 14 13 13 13
17 17 11 13 3 9 22 22 47 58 62 58 54 54 49 45 40 42 38 35 30 27 22 25 24 14 12 13 12 12 13 12
15 11 6 3 7 8 28 37 55 57 57 55 54 50 50 41 39 37 38 38 32 28 31 31 27 18 16 15 14 10 7 7
6 6 8 9 19 9 32 40 50 47 52 52 51 51 52 51 45 44 41 42 42 37 35 29 26 21 19 19 15 10 7 7
2 9 5 2 14 8 37 42 37 39 44 45 47 48 49 51 53 56 54 50 49 40 33 28 26 25 26 22 15 9 5 10
8 14 6 5 27 11 22 38 44 46 47 45 42 39 41 46 49 54 54 53 46 39 33 29 27 28 27 18 4 5 4 9
9 15 15 29 31 22 21 29 38 51 57 53 48 46 45 44 47 52 52 51 46 42 39 37 36 31 25 14 3 6 11 16
7 6 21 5 33 10 16 17 37 48 59 64 59 58 57 55 54 52 50 46 45 44 42 39 33 27 22 12 10 13 17 19
7 6 7 10 10 12 12 29 24 39 60 66 72 72 67 64 59 51 44 41 42 41 38 37 34 29 22 16 21 21 22 19
15 10 8 5 9 10 13 16 18 44 58 72 78 74 71 69 64 57 48 45 40 40 43 44 36 27 15 14 24 26 23 19
Wind_Direction_850mb
87 95 149 180 147 129 69 105 38 103 69 67 115 137 139 148 152 159 157 154 152 151 151 140 128 116 103 96 94 94 94 91
79 69 32 33 135 125 88 74 58 104 66 80 127 139 145 150 153 155 150 147 147 146 141 132 122 113 105 100 96 92 89 86
77 313 312 303 159 143 96 85 98 51 97 100 147 148 147 148 149 151 145 143 144 144 140 133 123 112 102 97 93 90 88 88
294 289 320 287 103 87 92 98 97 116 116 150 157 154 149 147 143 144 139 139 138 137 134 127 118 110 103 97 94 92 91 90
160 162 219 214 71 118 131 122 106 148 76 138 152 154 146 143 142 140 140 140 139 137 133 126 116 110 105 101 101 102 94 94
200 187 210 192 115 158 120 161 152 149 167 174 158 156 152 150 149 148 147 146 140 139 135 129 124 119 116 115 110 107 102 101
234 162 200 176 142 161 121 151 153 207 169 147 152 157 159 159 160 158 154 149 144 139 135 130 123 124 121 122 117 117 109 98
196 176 168 185 171 159 149 176 226 179 159 159 160 162 164 164 161 162 159 153 149 137 134 140 129 128 126 123 123 128 114 107
188 183 175 149 144 160 141 182 199 162 164 170 170 171 172 167 165 159 158 161 154 149 142 142 142 146 142 142 147 152 144 130
121 171 135 124 160 138 157 200 185 168 170 173 178 179 179 174 171 167 167 164 166 163 160 159 163 168 179 189 194 200 216 243
104 125 105 140 111 157 197 220 180 172 176 181 182 188 188 190 181 179 177 174 176 182 179 183 184 198 203 207 217 232 252 270
69 69 81 131 113 134 202 202 185 179 185 189 191 196 197 200 196 193 190 188 189 194 194 197 206 219 213 219 231 240 248 265
38 35 27 50 323 212 178 183 173 183 193 196 201 207 211 208 211 208 203 201 201 201 199 201 213 225 230 240 239 241 264 283
348 89 15 55 247 251 173 182 176 185 191 201 205 215 222 221 225 224 216 207 205 203 207 209 217 226 235 241 229 232 263 295
336 171 93 94 261 343 190 190 181 183 188 196 201 208 220 228 234 227 215 209 204 202 207 214 220 226 224 217 212 221 301 322
221 208 131 191 258 288 206 197 186 183 185 190 196 204 215 223 224 216 203 199 203 205 209 219 229 229 212 205 206 359 56 63
233 216 144 215 232 254 227 198 190 191 187 185 187 188 193 200 202 199 197 202 209 215 218 222 225 220 209 185 199 138 105 91
222 268 185 155 237 249 211 223 201 197 192 191 186 187 189 193 199 203 205 207 214 220 225 221 224 210 197 167 166 135 115 108
191 90 29 110 310 201 228 214 220 219 213 204 200 196 194 197 202 207 212 221 226 224 219 211 206 201 189 172 164 152 135 127
131 130 211 174 260 254 214 209 203 217 215 215 211 209 204 205 207 210 211 217 220 218 215 208 208 226 232 207 170 156 153 138